Retour au catalogue

STARLINK-4533

ActifCommunicationsVLEO
NORAD 53406·PAYLOAD·🇺🇸 United States

Lancé Aug 10, 2022 depuis Cape Canaveral Space Force Station

Loading…

Prochains Passages (prochaines 24 heures)

TLE

FraisSource: CelesTrak SupGP

Époque: Sep 15, 2026, 02:32 UTC

1 53406C 22097U   26258.10604167  .00034802  00000+0  11192-2 0  2586
2 53406  53.1595 331.9157 0001108  84.2953  66.7867 15.31682069    10

Suivez STARLINK-4533 en temps réel avec AllMySat

Download on the App Store